Miscellaneous Local Product
Issued by NWS North Platte, NE

Home | Current Version | Previous Version | Graphics & Text | Print | Product List | Glossary On
Versions: 1 2 3 4 5 6 7 8 9 10 11 12 13 14 15 16 17 18 19 20 21 22 23 24 25 26 27 28 29 30 31 32 33 34 35 36 37 38 39 40 41 42 43 44 45 46 47 48 49 50
000
AXUS43 KLBF 271810
MISLBF


WESTERN AND NORTH CENTRAL NEBRASKA HOURLY WEATHER ROUNDUP
NATIONAL WEATHER SERVICE NORTH PLATTE NE
1200 PM CST MON FEB 27 2017

NOTE: "FAIR" INDICATES FEW OR NO CLOUDS BELOW 12,000 FEET WITH NO
SIGNIFICANT WEATHER AND/OR OBSTRUCTIONS TO VISIBILITY.

NOTE: STATIONS NOT REPORTING VARIABLES SUCH AS SKY/WEATHER OR
PRESSURE ARE PROVIDED BY RAWS AND APRS NETWORKS AND ARE NOT UNDER
NATIONAL WEATHER SERVICE QUALITY CONTROL.

...OBSERVATIONS IN AND NEAR THE EASTERN PANHANDLE OF NEBRASKA...

CITY           SKY/WX    TMP DP  RH WIND       PRES   REMARKS
PINE RIDGE     PTSUNNY   33  18  53 S10       29.65F WCI  25
CHADRON        CLOUDY    33  18  53 CALM      29.65F
ALLIANCE       CLOUDY    25  17  72 S6        29.65F WCI  18
SIDNEY         CLOUDY    40  19  43 S12       29.67F WCI  33
CRESCENT LAKE    N/A     36  19  50 S6          N/A  WCI  31
$$

...OBSERVATIONS IN NORTHERN NEBRASKA AND FAR SOUTHERN SOUTH DAKOTA...

CITY           SKY/WX    TMP DP  RH WIND       PRES   REMARKS
WINNER         FAIR      41  25  53 SW21G26   29.72F
VALENTINE      CLOUDY    37  25  61 SW22      29.71F WCI  26
THEDFORD       CLOUDY    40  29  65 S20G26    29.73F WCI  30
AINSWORTH      CLOUDY    38  28  67 S24       29.73F WCI  27
O`NEILL        CLOUDY    40  26  56 S20       29.80F WCI  31
ORD            SUNNY     42  24  49 S16G25    29.81F
BROKEN BOW     SUNNY     42  27  55 S23G37    29.76F
VALENTINE NWR    N/A     37  22  56 S15         N/A  WCI  28
BUTTE            N/A     38  24  56 S13G22      N/A  WCI  30
HALSEY           N/A     44  27  50 S9G23       N/A
CHAMBERS         N/A     45  26  47 S7          N/A
EWING            N/A     43  27  53 S10G18      N/A
$$

...OBSERVATIONS IN SOUTHWEST NEBRASKA AND FAR NORTHEAST COLORADO...

CITY           SKY/WX    TMP DP  RH WIND       PRES   REMARKS
HOLYOKE        FAIR      46  21  36 S6        29.70F
IMPERIAL       SUNNY     39  24  55 S9        29.72F WCI  33
OGALLALA       SUNNY     40  27  60 SE9       29.72F WCI  33
NORTH PLATTE   SUNNY     45  27  49 S17       29.75F
MCCOOK         CLOUDY    42  27  55 S12       29.77F
LEXINGTON      MOSUNNY   44  27  52 SE18      29.79F
STAPLETON        N/A     45  31  58 SW3         N/A
GOTHENBURG       N/A     43  26  51 SE15        N/A
CALLAWAY         N/A     42  30  63 S23         N/A
$$

...OBSERVATIONS IN CENTRAL LINCOLN COUNTY AREA...

CITY           SKY/WX    TMP DP  RH WIND       PRES   REMARKS
N.P. AIRPORT   SUNNY     45  27  49 S17       29.75F
N.P. DOWNTOWN    N/A     18  11  74 W3          N/A
N.P. SOUTHEAST   N/A     42  28  58 S9G16       N/A
N.P. HILLCREST   N/A     43  29  57 S16G25      N/A
$$

...SOME OBSERVATIONS FROM AROUND THE REGION...

CITY           SKY/WX    TMP DP  RH WIND       PRES   REMARKS
LARAMIE        CLOUDY    33  19  56 SW24G31   29.55S WCI  20
CHEYENNE       SUNNY     31  12  45 S12       29.61F WCI  22
DENVER         MOSUNNY   50   8  18 S20G32    29.60F
AKRON          SUNNY     49   6  17 S15       29.66F
SCOTTSBLUFF    CLOUDY    26  16  65 E5        29.66F WCI  20
RAPID CITY     CLOUDY    36  19  50 SE8       29.62F WCI  30
BISMARCK       PTSUNNY   23  17  78 NE13      29.81F WCI  11
PIERRE         SUNNY     42  16  34 SW7       29.70F
SIOUX FALLS    CLOUDY    38  24  57 S13       29.88F WCI  30
OMAHA          PTSUNNY   47  29  49 S9        29.94F
GRAND ISLAND   CLOUDY    48  26  42 S14G25    29.86F
KANSAS CITY    PTSUNNY   54  33  45 S18       29.99F
WICHITA        CLOUDY    53  43  68 SE18      29.89F
OKLAHOMA CITY  MOSUNNY   66  53  63 S12       29.91F
DALLAS         LGT RAIN  75  64  68 SW20      29.94S
AMARILLO       SUNNY     64  24  21 SW21G30   29.87F
DODGE CITY     SUNNY     55  28  35 SW17G31   29.80F
HAYS           SUNNY     53  34  48 S16G24    29.79F
GOODLAND       SUNNY     46  20  35 VRB3      29.70F
$$




USA.gov is the U.S. government's official web portal to all federal, state and local government web resources and services.